Regional Weather Roundup
Issued by NWS State College, PA

Home | Current Version | Previous Version | Text Only | Print | Product List | Glossary Off
Versions: 1 2 3 4 5 6 7 8 9 10 11 12 13 14 15 16 17 18 19 20 21 22 23 24 25 26 27 28 29 30 31 32 33 34 35 36 37 38 39 40 41 42 43 44 45 46 47 48 49 50

000
ASUS41 KCTP 260410
RWRCTP

REGIONAL WEATHER ROUNDUP
NATIONAL WEATHER SERVICE STATE COLLEGE PA
1100 PM EST THU DEC 25 2014

Note: "fair" indicates few or no clouds below 12,000 feet with no
significant weather and/or obstructions to visibility.

* = STATION THAT DOES NOT REPORT PRECIPITATION /E.G. RAIN...SNOW...ETC/
    THUNDER OR FOG.

PAZ002>004-007>009-013>016-020>023-029>032-260500-
WESTERN PENNSYLVANIA

CITY           SKY/WX    TMP DP  RH WIND       PRES   REMARKS
ERIE           CLOUDY    39  28  64 SW7       30.16F
MEADVILLE      CLOUDY    36  27  69 SW5       30.14F
FRANKLIN*      CLOUDY    36  27  69 SW7       30.18S
NEW CASTLE       N/A     37  30  76 SW8       30.20F
BEAVER COUNTY  NOT AVBL
BUTLER*        CLOUDY    37  27  65 SW12G20   30.21F
PITTSBURGH INT CLOUDY    38  28  67 W7        30.21S
PITTSBURGH     CLOUDY    37  27  67 W8G21     30.21R
INDIANA*       CLOUDY    37  30  75 W8        30.23F
LATROBE        CLOUDY    37  30  75 SW7       30.23S
WASHINGTON CO* NOT AVBL
$$

PAZ004>006-010>012-017>019-024>028-033>037-041-042-045-046-049>053-260500-
CENTRAL PENNSYLVANIA

CITY           SKY/WX    TMP DP  RH WIND       PRES   REMARKS
BRADFORD       CLOUDY    33  24  69 VRB6      30.12R
DUBOIS         CLOUDY    35  27  72 W10       30.15R
CLEARFIELD     CLOUDY    36  26  67 W9        30.17R
JOHNSTOWN      CLOUDY    33  26  75 W12G18    30.15S
ALTOONA        MOCLDY    37  27  67 W12       30.19R
STATE COLLEGE  CLOUDY    38  28  67 W13G20    30.18S
WILLIAMSPORT   CLOUDY    40  28  62 W5        30.15R
SELINSGROVE    CLEAR     41  28  60 W8        30.18R
FT INDIANTOWN  CLEAR     42  28  57 W13G23    30.18R
CAPITAL CITY   CLEAR     40  28  62 W8        30.20R
HARRISBURG     CLEAR     40  30  67 SW7       30.20R
YORK           CLEAR     34  27  75 W3        30.20R
$$

PAZ038>040-043-044-047-048-054-055-060>062-067>071-260500-
EASTERN PENNSYLVANIA

CITY           SKY/WX    TMP DP  RH WIND       PRES   REMARKS
SCRANTON       MOCLDY    39  29  67 SW6       30.11R
MOUNT POCONO   FAIR      36  26  67 NW15G29   30.04R
ALLENTOWN      CLEAR     41  28  60 W7        30.13R
QUAKERTOWN*    NOT AVBL
READING        CLEAR     39  28  64 W7        30.16R
LANCASTER      CLEAR     34  27  75 W7        30.19R
COATESVILLE    CLEAR     39  32  75 W6        30.18R
POTTSTOWN      CLEAR     39  28  64 W5        30.17R
BLUE BELL      CLEAR     41  32  70 W3        30.16R
DOYLESTOWN     CLEAR     39  32  76 W6        30.14R
WILLOW GROVE   NOT AVBL
NORTH PHILA    CLEAR     42  28  57 W9        30.18R
PHILADELPHIA   CLEAR     40  28  62 W9        30.19R
$$


USA.gov is the U.S. government's official web portal to all federal, state and local government web resources and services.